| time (UTC) | temp F | wind direction | speed knots | gust knots | rain 1hr in | rain 24hr in | rain mn in | humidity % | barometer mb |
| 20260507101222 | 49 | 315 | 2.6 | 3.5 | 0.01 | 0.31 | 0.28 | 99 | 1009.0 |
| 20260507100225 | 50 | 0.0 | 0.0 | 0.02 | 0.31 | 0.28 | 99 | ||
| 20260507095228 | 50 | 0.0 | 0.0 | 0.02 | 0.31 | 0.28 | 99 | 1009.5 | |
| 20260507094250 | 50 | 0.9 | 1.7 | 0.02 | 0.30 | 0.27 | 98 | 1009.2 | |
| 20260507093233 | 50 | 0.0 | 0.9 | 0.02 | 0.30 | 0.27 | 98 | 1009.2 | |
| 20260507092217 | 50 | 2 | 2.6 | 4.3 | 0.02 | 0.30 | 0.27 | 99 | 1009.2 |
| 20260507091219 | 51 | 315 | 4.3 | 5.2 | 0.03 | 0.30 | 0.27 | 99 | 1009.0 |
| 20260507090243 | 51 | 1.7 | 1.7 | 0.04 | 0.29 | 0.26 | 99 | 1008.6 | |
| 20260507085225 | 51 | 0 | 2.6 | 2.6 | 0.04 | 0.29 | 0.26 | 99 | 1009.1 |
| 20260507084227 | 52 | 0.0 | 0.9 | 0.07 | 0.28 | 0.25 | 99 | 1008.8 | |
| 20260507083252 | 52 | 0.0 | 0.0 | 0.14 | 0.28 | 0.25 | 99 | 1008.7 | |
| 20260507082226 | 52 | 281 | 1.7 | 3.5 | 0.24 | 0.28 | 0.25 | 99 | 1008.7 |
| 20260507081216 | 52 | 284 | 2.6 | 3.5 | 0.24 | 0.27 | 0.24 | 99 | 1008.6 |
| 20260507080219 | 53 | 0.0 | 0.0 | 0.22 | 0.25 | 0.22 | 99 | 1008.7 | |
| 20260507075215 | 53 | 90 | 0.9 | 1.7 | 0.22 | 0.25 | 0.22 | 99 | 1008.7 |
| 20260507074224 | 53 | 0.9 | 1.7 | 0.18 | 0.21 | 0.18 | 99 | 1009.0 | |
| 20260507073228 | 54 | 270 | 3.5 | 3.5 | 0.11 | 0.14 | 0.11 | 98 | 1008.3 |
| 20260507072229 | 55 | 270 | 1.7 | 2.6 | 0.01 | 0.04 | 0.01 | 95 | 1008.3 |
| 20260507071231 | 55 | 293 | 2.6 | 2.6 | 0.00 | 0.03 | 0.00 | 93 | 1007.7 |
| 20260507070228 | 56 | 0.0 | 0.0 | 0.00 | 0.03 | 0.00 | 92 | 1007.6 | |
| 20260507065230 | 56 | 315 | 1.7 | 2.6 | 0.00 | 0.03 | 0.00 | 92 | 1007.5 |
| 20260507064233 | 56 | 311 | 1.7 | 2.6 | 0.00 | 0.03 | 0.00 | 95 | 1007.9 |
| 20260507063217 | 57 | 113 | 0.9 | 1.7 | 0.00 | 0.03 | 0.00 | 95 | 1007.9 |
| 20260507062220 | 57 | 0.0 | 0.0 | 0.00 | 0.03 | 0.00 | 95 | 1007.9 | |
| 20260507061222 | 57 | 0.0 | 0.0 | 0.00 | 0.03 | 0.00 | 95 | 1007.8 | |
| 20260507060224 | 57 | 23 | 1.7 | 1.7 | 0.00 | 0.03 | 0.00 | 95 | 1007.8 |
| 20260507055227 | 57 | 203 | 0.9 | 1.7 | 0.00 | 0.03 | 0.00 | 96 | 1008.0 |
| 20260507054230 | 57 | 238 | 1.7 | 1.7 | 0.00 | 0.03 | 0.00 | 99 | 1008.2 |
| 20260507053227 | 57 | 0.0 | 0.0 | 0.00 | 0.03 | 0.00 | 99 | 1008.4 | |
| 20260507052217 | 57 | 0.0 | 0.0 | 0.00 | 0.03 | 0.00 | 99 | 1008.4 | |
| 20260507051239 | 57 | 203 | 0.0 | 0.9 | 0.00 | 0.03 | 0.00 | 99 | 1008.5 |
| 20260507050216 | 57 | 203 | 1.7 | 2.6 | 0.00 | 0.03 | 0.00 | 99 | 1008.6 |
| 20260507045224 | 57 | 113 | 2.6 | 4.3 | 0.00 | 0.03 | 0.00 | 99 | 1008.5 |
| 20260507044246 | 57 | 0.0 | 0.0 | 0.00 | 0.03 | 0.00 | 99 | 1008.6 | |
| 20260507043228 | 57 | 113 | 0.9 | 0.9 | 0.00 | 0.03 | 0.00 | 99 | 1008.7 |
| 20260507042231 | 57 | 352 | 3.5 | 4.3 | 0.00 | 0.03 | 0.00 | 99 | 1008.7 |
| 20260507041216 | 57 | 0.0 | 0.0 | 0.00 | 0.03 | 0.00 | 99 | 1008.3 | |
| 20260507040220 | 57 | 217 | 1.7 | 2.6 | 0.00 | 0.03 | 0.00 | 99 | 1008.3 |
| 20260507035221 | 57 | 113 | 2.6 | 2.6 | 0.00 | 0.03 | 0.03 | 99 | 1008.4 |
| 20260507034223 | 57 | 203 | 1.7 | 2.6 | 0.00 | 0.03 | 0.03 | 99 | 1008.4 |
| 20260507033226 | 57 | 225 | 2.6 | 2.6 | 0.00 | 0.03 | 0.03 | 99 | 1008.6 |
| 20260507032230 | 0 | 228 | 3.5 | 3.5 | 0.00 | 0.03 | 0.03 | 1008.6 | |
| 20260507031231 | 57 | 248 | 4.3 | 4.3 | 0.00 | 0.03 | 0.03 | 99 | 1008.8 |
| 20260507030215 | 56 | 203 | 4.3 | 5.2 | 0.00 | 0.03 | 0.03 | 99 | 1008.5 |
| 20260507025218 | 56 | 237 | 2.6 | 3.5 | 0.00 | 0.03 | 0.03 | 99 | 1008.5 |
| 20260507024241 | 56 | 113 | 5.2 | 7.8 | 0.00 | 0.03 | 0.03 | 99 | 1008.5 |
| 20260507023223 | 56 | 45 | 6.1 | 7.8 | 0.00 | 0.03 | 0.03 | 99 | 1008.7 |
| 20260507022220 | 56 | 270 | 4.3 | 5.2 | 0.00 | 0.03 | 0.03 | 99 | 1008.7 |
| 20260507021216 | 56 | 180 | 1.7 | 2.6 | 0.00 | 0.03 | 0.03 | 99 | 1008.8 |
| 20260507020312 | 56 | 214 | 3.5 | 4.3 | 0.00 | 0.03 | 0.03 | 99 | 1008.5 |
| 20260507015235 | 56 | 167 | 2.6 | 3.5 | 0.00 | 0.03 | 0.03 | 99 | 1008.7 |
| 20260507014217 | 56 | 318 | 3.5 | 4.3 | 0.00 | 0.03 | 0.03 | 99 | 1008.7 |
| 20260507013221 | 56 | 113 | 2.6 | 3.5 | 0.00 | 0.03 | 0.03 | 99 | 1008.8 |
| 20260507012223 | 56 | 3.5 | 6.1 | 0.00 | 0.03 | 0.03 | 99 | 1008.8 | |
| 20260507011225 | 56 | 225 | 5.2 | 6.1 | 0.00 | 0.03 | 0.03 | 99 | 1009.1 |
| 20260507010228 | 56 | 158 | 3.5 | 4.3 | 0.00 | 0.03 | 0.03 | 99 | 1009.2 |
| 20260507005229 | 56 | 163 | 4.3 | 7.0 | 0.00 | 0.03 | 0.03 | 99 | 1009.2 |
| 20260507004232 | 56 | 194 | 4.3 | 4.3 | 0.00 | 0.03 | 0.03 | 99 | 1009.1 |
| 20260507003216 | 56 | 299 | 5.2 | 7.0 | 0.00 | 0.03 | 0.03 | 99 | 1008.9 |
| 20260507002219 | 56 | 193 | 5.2 | 6.1 | 0.00 | 0.03 | 0.03 | 99 | 1008.9 |
| 20260507001221 | 56 | 120 | 4.3 | 6.1 | 0.00 | 0.03 | 0.03 | 99 | 1008.9 |
| 20260507000224 | 56 | 7.0 | 8.7 | 0.00 | 0.03 | 0.03 | 99 | 1008.9 | |
| 20260506235226 | 56 | 45 | 6.1 | 7.0 | 0.01 | 0.03 | 0.03 | 99 | 1009.0 |
| 20260506234223 | 0 | 0.0 | 0.0 | 0.01 | 0.03 | 0.03 | 1008.9 | ||
| 20260506233240 | 0 | 0.0 | 0.0 | 0.01 | 0.03 | 0.03 | 1008.9 | ||
| 20260506232215 | 0 | 0.0 | 0.0 | 0.01 | 0.03 | 0.03 | 1008.9 | ||
| 20260506231217 | 0 | 0.0 | 0.0 | 0.01 | 0.03 | 0.03 | 1008.9 | ||
| 20260506230220 | 56 | 225 | 6.1 | 8.7 | 0.01 | 0.03 | 0.03 | 99 | 1008.9 |
| 20260506225223 | 0 | 0.0 | 0.0 | 0.00 | 0.02 | 0.02 | 1008.9 | ||
| 20260506224225 | 57 | 146 | 3.5 | 4.3 | 0.00 | 0.02 | 0.02 | 98 | 1008.9 |
| 20260506223227 | 57 | 248 | 4.3 | 5.2 | 0.00 | 0.02 | 0.02 | 98 | 1008.8 |
| 20260506222229 | 57 | 270 | 6.1 | 6.1 | 0.00 | 0.02 | 0.02 | 98 | 1008.8 |
| 20260506221232 | 57 | 200 | 5.2 | 5.2 | 0.01 | 0.02 | 0.02 | 98 | 1008.8 |
| 20260506220216 | 57 | 158 | 5.2 | 5.2 | 0.01 | 0.02 | 0.02 | 98 | 1008.9 |
| 20260506215219 | 0 | 264 | 5.2 | 6.1 | 0.01 | 0.02 | 0.02 | 1009.3 | |
| 20260506214302 | 0 | 171 | 5.2 | 8.7 | 0.01 | 0.02 | 0.02 | 1009.4 | |
| 20260506213224 | 57 | 270 | 4.3 | 5.2 | 0.01 | 0.02 | 0.02 | 97 | 1009.4 |
| 20260506212309 | 58 | 203 | 5.2 | 6.1 | 0.01 | 0.02 | 0.02 | 96 | 1009.4 |
| 20260506211229 | 58 | 7.0 | 7.0 | 0.00 | 0.01 | 0.01 | 95 | 1009.6 | |
| 20260506210246 | 58 | 248 | 6.1 | 7.0 | 0.00 | 0.01 | 0.01 | 94 | 1009.5 |
| 20260506205216 | 58 | 200 | 6.1 | 9.6 | 0.00 | 0.01 | 0.01 | 94 | 1009.6 |
| 20260506204220 | 59 | 113 | 6.1 | 9.6 | 0.00 | 0.01 | 0.01 | 94 | 1009.7 |
| 20260506203216 | 59 | 113 | 5.2 | 6.1 | 0.00 | 0.01 | 0.01 | 94 | 1009.8 |
| 20260506202224 | 59 | 238 | 6.1 | 7.0 | 0.01 | 0.01 | 0.01 | 95 | 1009.8 |
| 20260506201226 | 59 | 171 | 7.0 | 7.8 | 0.01 | 0.01 | 0.01 | 94 | 1010.0 |
| 20260506200229 | 59 | 179 | 7.8 | 7.8 | 0.01 | 0.01 | 0.01 | 93 | 1010.0 |
| 20260506195233 | 59 | 169 | 8.7 | 13.0 | 0.01 | 0.01 | 0.01 | 92 | 1010.1 |
| 20260506194216 | 60 | 248 | 5.2 | 5.2 | 0.01 | 0.01 | 0.01 | 93 | 1010.1 |
| 20260506193218 | 60 | 115 | 7.0 | 8.7 | 0.01 | 0.01 | 0.01 | 93 | 1010.3 |
| 20260506192221 | 60 | 158 | 4.3 | 5.2 | 0.00 | 0.00 | 0.00 | 91 | 1010.3 |
| 20260506191224 | 61 | 348 | 5.2 | 6.1 | 0.00 | 0.00 | 0.00 | 88 | 1010.3 |
| 20260506190227 | 61 | 193 | 6.1 | 7.0 | 0.00 | 0.00 | 0.00 | 85 | 1010.4 |
| 20260506185231 | 62 | 113 | 4.3 | 5.2 | 0.00 | 0.00 | 0.00 | 83 | 1010.6 |
| 20260506184231 | 63 | 315 | 7.0 | 7.8 | 0.00 | 0.00 | 0.00 | 78 | 1010.7 |
| 20260506183236 | 63 | 128 | 10.4 | 13.0 | 0.00 | 0.00 | 0.00 | 77 | 1010.8 |
| 20260506182218 | 63 | 50 | 10.4 | 14.8 | 0.00 | 0.00 | 0.00 | 76 | 1010.8 |
| 20260506181242 | 64 | 113 | 10.4 | 11.3 | 0.00 | 0.00 | 0.00 | 74 | 1011.2 |
| 20260506180222 | 65 | 113 | 12.2 | 13.9 | 0.00 | 0.00 | 0.00 | 74 | 1010.8 |
| 20260506175219 | 66 | 163 | 4.3 | 6.1 | 0.00 | 0.00 | 0.00 | 72 | 1011.2 |
| 20260506174215 | 66 | 158 | 6.1 | 7.0 | 0.00 | 0.00 | 0.00 | 72 | 1011.4 |
| 20260506173230 | 67 | 206 | 8.7 | 9.6 | 0.00 | 0.00 | 0.00 | 70 | 1011.7 |
| 20260506172232 | 68 | 315 | 7.8 | 11.3 | 0.00 | 0.00 | 0.00 | 69 | 1011.7 |
| 20260506171259 | 68 | 59 | 12.2 | 13.9 | 0.00 | 0.00 | 0.00 | 68 | 1011.4 |
| 20260506170219 | 69 | 90 | 11.3 | 12.2 | 0.00 | 0.00 | 0.00 | 67 | |
| 20260506165221 | 68 | 159 | 7.8 | 8.7 | 0.00 | 0.00 | 0.00 | 67 | 1011.7 |
| 20260506164225 | 68 | 277 | 9.6 | 12.2 | 0.00 | 0.00 | 0.00 | 68 | 1011.8 |
| 20260506163226 | 70 | 42 | 7.8 | 8.7 | 0.00 | 0.00 | 0.00 | 66 | 1011.9 |
| 20260506162229 | 68 | 124 | 6.1 | 7.8 | 0.00 | 0.00 | 0.00 | 68 | 1011.9 |
| 20260506161231 | 68 | 221 | 7.8 | 13.0 | 0.00 | 0.00 | 0.00 | 68 | 1012.2 |
| 20260506160215 | 68 | 171 | 6.1 | 9.6 | 0.00 | 0.00 | 0.00 | 67 | 1012.3 |
| 20260506155218 | 70 | 185 | 7.8 | 9.6 | 0.00 | 0.00 | 0.00 | 64 | 1012.3 |
| 20260506154220 | 71 | 243 | 9.6 | 11.3 | 0.00 | 0.00 | 0.00 | 64 | 1012.2 |
| 20260506153224 | 71 | 80 | 8.7 | 10.4 | 0.00 | 0.00 | 0.00 | 63 | 1012.4 |
| 20260506152226 | 71 | 168 | 10.4 | 13.9 | 0.00 | 0.00 | 0.00 | 64 | 1012.4 |
| 20260506151222 | 70 | 230 | 8.7 | 9.6 | 0.00 | 0.00 | 0.00 | 66 | 1012.5 |
| 20260506150219 | 69 | 248 | 7.0 | 8.7 | 0.00 | 0.00 | 0.00 | 67 | 1012.7 |
| 20260506145215 | 69 | 11.3 | 12.2 | 0.00 | 0.00 | 0.00 | 67 | 1012.5 | |
| 20260506144218 | 69 | 209 | 7.0 | 9.6 | 0.00 | 0.00 | 0.00 | 68 | 1012.3 |
| 20260506143220 | 0 | 200 | 7.0 | 7.0 | 0.00 | 0.00 | 0.00 | 1012.5 | |
| 20260506142224 | 69 | 8.7 | 9.6 | 0.00 | 0.00 | 0.00 | 68 | 1012.5 | |
| 20260506141224 | 68 | 135 | 8.7 | 10.4 | 0.00 | 0.00 | 0.00 | 68 | 1012.7 |
| 20260506140227 | 68 | 225 | 6.1 | 8.7 | 0.00 | 0.00 | 0.00 | 70 | 1012.4 |
| 20260506135230 | 67 | 248 | 6.1 | 7.0 | 0.00 | 0.00 | 0.00 | 71 | 1012.5 |
| 20260506134232 | 67 | 174 | 6.1 | 7.0 | 0.00 | 0.00 | 0.00 | 71 | 1012.7 |
| 20260506133217 | 67 | 158 | 6.1 | 8.7 | 0.00 | 0.00 | 0.00 | 71 | 1012.9 |
| 20260506132219 | 66 | 113 | 8.7 | 10.4 | 0.00 | 0.00 | 0.00 | 73 | 1012.9 |
| 20260506131223 | 65 | 191 | 5.2 | 5.2 | 0.00 | 0.00 | 0.00 | 74 | 1012.9 |
| 20260506130224 | 65 | 320 | 8.7 | 11.3 | 0.00 | 0.00 | 0.00 | 76 | 1012.9 |
| 20260506125228 | 64 | 246 | 7.0 | 7.8 | 0.00 | 0.00 | 0.00 | 77 | 1012.9 |
| 20260506124229 | 63 | 203 | 5.2 | 7.0 | 0.00 | 0.00 | 0.00 | 79 | 1012.9 |
| 20260506123226 | 62 | 300 | 7.0 | 7.8 | 0.00 | 0.00 | 0.00 | 80 | 1012.9 |
| 20260506122215 | 62 | 180 | 5.2 | 6.1 | 0.00 | 0.00 | 0.00 | 82 | 1012.9 |
| 20260506121218 | 61 | 97 | 6.1 | 7.8 | 0.00 | 0.00 | 0.00 | 84 | 1012.9 |
| 20260506120220 | 60 | 68 | 3.5 | 4.3 | 0.00 | 0.00 | 0.00 | 87 | 1013.2 |
| 20260506115223 | 59 | 68 | 4.3 | 5.2 | 0.00 | 0.00 | 0.00 | 89 | 1013.2 |
| 20260506114225 | 59 | 194 | 7.0 | 9.6 | 0.00 | 0.00 | 0.00 | 89 | 1013.4 |
| 20260506113228 | 59 | 204 | 4.3 | 5.2 | 0.00 | 0.00 | 0.00 | 89 | 1013.2 |
| 20260506112231 | 59 | 293 | 7.0 | 7.8 | 0.00 | 0.00 | 0.00 | 89 | 1013.2 |
| 20260506111232 | 58 | 28 | 5.2 | 7.0 | 0.00 | 0.00 | 0.00 | 92 | 1013.4 |
| 20260506110217 | 57 | 90 | 5.2 | 7.0 | 0.00 | 0.00 | 0.00 | 93 | 1013.2 |
| 20260506105219 | 57 | 2 | 4.3 | 6.1 | 0.00 | 0.00 | 0.00 | 93 | 1013.2 |
| 20260506104222 | 57 | 68 | 5.2 | 8.7 | 0.00 | 0.00 | 0.00 | 93 | 1012.9 |
| 20260506103225 | 57 | 158 | 7.8 | 8.7 | 0.00 | 0.00 | 0.00 | 94 | 1013.0 |
| 20260506102227 | 0 | 358 | 2.6 | 2.6 | 0.00 | 0.00 | 0.00 | 1013.0 |